Location: Newark
(43.0000°N, 1.6781°W)
Time: 22:47:36
(UTC+00:00)

Vanguard 1 - Pass Details

Date: 07 December 2021
Orbit: 652 x 3830 km, 34.2° (Epoch: 16 January)

Event Time Altitude Azimuth Distance (km) Brightness Sun altitude
Exits shadow 02:02:17 53° 129° (SE) 4,012 12.9 -57.2°
Drops below altitude 10° 02:14:44 10° 105° (ESE) 5,619 14.2 -55.2°
Sets 02:18:19 0° 103° (ESE) 6,297 14.6 -54.6°
